Weather in Sao Leopoldo

Brazil     29°46′18″S   51°08′58″W
temp.,
°C
wind,
m/s
gust,
m/s
humid.,
%
clouds,
%
prec.,
mm/h
press.,
hPa
HPBL,
m
14 april, wed
wed1400:00+18e26770 0.0 1020293
03:00+16ene13861 0.0 1019127
06:00+15ne12880 0.0 101969
09:00+20ne12626 0.0 1020354
12:00+27se123913 0.0 10191114
15:00+29sse333277 0.0 10151652
18:00+24ese485179 0.0 1015441
21:00+20e2569100 0.0 1017174
15 april, thu
thu1500:00+18ene1174100 0.0 101667
03:00+17nne1175100 0.0 101647
06:00+17ne1174100 0.0 101637
09:00+21n1256100 0.0 1018293
12:00+29nne1233100 0.0 10161056
15:00+30ssw2231100 0.0 10131382
18:00+24s2555100 0.0 1014220
21:00+22ne016588 0.1 101448
16 april, fri
fri1600:00+21wsw1269100 0.0 101479
03:00+19nw1378100 0.0 1014113
06:00+19nw127677 0.0 101468
09:00+22wnw2359100 0.0 1016332
12:00+22w3567100 0.0 1016518
15:00+20ssw1283100 0.1 1014221
18:00+20se1284100 0.1 1015184
21:00+20ese138488 0.1 1015172
17 april, sat
sat1700:00+18ene009096 0.0 101516
03:00+17nw119399 0.0 101438
06:00+16nnw119547 0.0 101541
09:00+21w12755 0.0 1017388
12:00+26ssw235425 0.0 10161288
15:00+27s444628 0.0 10141687
18:00+23s366815 0.0 1015563
21:00+20sse268937 0.3 1017330
18 april, sun
sun1800:00+19sw119335 0.2 101623
03:00+19sw118971 0.3 101634
06:00+19wnw1185100 0.0 101644
09:00+21wsw12741 0.1 1018313
12:00+26s225492 0.1 10161475
15:00+27se345297 0.4 10151685
18:00+24ese475856 0.0 1016798
21:00+21ese38745 0.0 1017457